When you browse on this site, cookies collect data to enhance your experience and personalize the content and advertising you see.
Visit our Privacy Policy to learn more. By continuing to use the site, you agree to this use of cookies and data.

Météo par heure à Tymoshyne

Ce jour, 12 Août, Mercredi

Heure Température Précipitation Vent Pression Humidité
00:00 +18°C° 0 mm 0 m/s 742 mmHg 61%
01:00 +20°C° 0 mm 1 m/s 742 mmHg 62%
02:00 +20°C° 0 mm 1 m/s 742 mmHg 63%
03:00 +19°C° 0 mm 1 m/s 742 mmHg 65%
04:00 +19°C° 0 mm 1 m/s 742 mmHg 66%
05:00 +19°C° 0 mm 1 m/s 742 mmHg 68%
06:00 +18°C° 0 mm 2 m/s 742 mmHg 70%
07:00 +20°C° 0 mm 2 m/s 742 mmHg 64%
08:00 +23°C° 0 mm 2 m/s 742 mmHg 58%
09:00 +25°C° 0 mm 2 m/s 742 mmHg 52%
10:00 +26°C° 0.2 mm 3 m/s 742 mmHg 49%
11:00 +27°C° 0.2 mm 3 m/s 742 mmHg 46%
12:00 +28°C° 0.2 mm 3 m/s 742 mmHg 43%
13:00 +28°C° 0.1 mm 4 m/s 742 mmHg 44%
14:00 +28°C° 0.1 mm 4 m/s 741 mmHg 45%
15:00 +27°C° 0.1 mm 4 m/s 741 mmHg 47%
16:00 +26°C° 0.1 mm 4 m/s 741 mmHg 50%
17:00 +25°C° 0.1 mm 5 m/s 741 mmHg 54%
18:00 +23°C° 0.1 mm 6 m/s 741 mmHg 58%
19:00 +22°C° 0 mm 5 m/s 742 mmHg 62%
20:00 +20°C° 0 mm 4 m/s 742 mmHg 67%
21:00 +18°C° 0 mm 3 m/s 742 mmHg 71%
22:00 +17°C° 0 mm 3 m/s 742 mmHg 72%
23:00 +16°C° 0 mm 3 m/s 743 mmHg 72%

Demain, 13 Août, Jeudi

Heure Température Précipitation Vent Pression Humidité
00:00 +14°C° 0 mm 3 m/s 743 mmHg 73%
01:00 +14°C° 0 mm 3 m/s 743 mmHg 76%
02:00 +13°C° 0 mm 3 m/s 743 mmHg 78%
03:00 +12°C° 0 mm 3 m/s 743 mmHg 81%
04:00 +12°C° 0 mm 3 m/s 743 mmHg 81%
05:00 +12°C° 0 mm 3 m/s 743 mmHg 81%
06:00 +11°C° 0 mm 3 m/s 743 mmHg 81%
07:00 +13°C° 0 mm 3 m/s 743 mmHg 76%
08:00 +15°C° 0 mm 4 m/s 743 mmHg 71%
09:00 +17°C° 0 mm 5 m/s 743 mmHg 65%
10:00 +19°C° 0 mm 5 m/s 743 mmHg 60%
11:00 +21°C° 0 mm 5 m/s 743 mmHg 55%
12:00 +22°C° 0 mm 5 m/s 743 mmHg 49%
13:00 +21°C° 0 mm 5 m/s 743 mmHg 50%
14:00 +21°C° 0 mm 6 m/s 743 mmHg 50%
15:00 +21°C° 0 mm 6 m/s 743 mmHg 50%
16:00 +21°C° 0 mm 5 m/s 743 mmHg 51%
17:00 +21°C° 0 mm 5 m/s 743 mmHg 51%
18:00 +21°C° 0 mm 5 m/s 743 mmHg 52%
19:00 +19°C° 0 mm 4 m/s 743 mmHg 59%
20:00 +17°C° 0 mm 4 m/s 743 mmHg 67%
21:00 +14°C° 0 mm 3 m/s 743 mmHg 75%
22:00 +14°C° 0 mm 3 m/s 743 mmHg 76%
23:00 +14°C° 0 mm 2 m/s 743 mmHg 78%

Après-demain, 14 Août, Vendredi

Heure Température Précipitation Vent Pression Humidité
00:00 +13°C° 0 mm 2 m/s 743 mmHg 79%
01:00 +13°C° 0 mm 2 m/s 743 mmHg 81%
02:00 +13°C° 0 mm 2 m/s 743 mmHg 82%
03:00 +11°C° 0 mm 3 m/s 743 mmHg 84%
04:00 +11°C° 0 mm 3 m/s 743 mmHg 86%
05:00 +11°C° 0 mm 3 m/s 743 mmHg 88%
06:00 +10°C° 0 mm 3 m/s 743 mmHg 89%
07:00 +12°C° 0 mm 3 m/s 743 mmHg 81%
08:00 +14°C° 0 mm 4 m/s 743 mmHg 73%
09:00 +17°C° 0 mm 4 m/s 743 mmHg 66%
10:00 +18°C° 0.1 mm 4 m/s 743 mmHg 62%
11:00 +19°C° 0.1 mm 4 m/s 743 mmHg 59%
12:00 +20°C° 0.1 mm 4 m/s 743 mmHg 56%
13:00 +20°C° 0.4 mm 4 m/s 743 mmHg 55%
14:00 +21°C° 0.4 mm 4 m/s 743 mmHg 54%
15:00 +21°C° 0.4 mm 4 m/s 743 mmHg 54%
16:00 +21°C° 0.3 mm 4 m/s 743 mmHg 55%
17:00 +20°C° 0.3 mm 4 m/s 743 mmHg 56%
18:00 +20°C° 0.3 mm 5 m/s 743 mmHg 57%
19:00 +18°C° 0 mm 4 m/s 744 mmHg 64%
20:00 +15°C° 0 mm 4 m/s 744 mmHg 71%
21:00 +13°C° 0 mm 3 m/s 744 mmHg 77%
22:00 +13°C° 0 mm 3 m/s 744 mmHg 77%
23:00 +12°C° 0 mm 3 m/s 745 mmHg 76%

15 Août, Samedi

Heure Température Précipitation Vent Pression Humidité
00:00 +11°C° 0 mm 3 m/s 745 mmHg 76%
01:00 +11°C° 0 mm 3 m/s 745 mmHg 78%
02:00 +10°C° 0 mm 3 m/s 745 mmHg 80%
03:00 +10°C° 0 mm 3 m/s 745 mmHg 82%
04:00 +10°C° 0 mm 3 m/s 745 mmHg 82%
05:00 +9°C° 0 mm 3 m/s 745 mmHg 83%
06:00 +9°C° 0 mm 3 m/s 745 mmHg 83%
07:00 +11°C° 0 mm 3 m/s 745 mmHg 76%
08:00 +13°C° 0 mm 4 m/s 746 mmHg 69%
09:00 +15°C° 0 mm 5 m/s 746 mmHg 61%
10:00 +17°C° 0 mm 5 m/s 746 mmHg 56%
11:00 +19°C° 0 mm 4 m/s 746 mmHg 51%
12:00 +20°C° 0 mm 4 m/s 746 mmHg 46%
13:00 +21°C° 0 mm 4 m/s 746 mmHg 45%
14:00 +21°C° 0 mm 4 m/s 746 mmHg 44%
15:00 +21°C° 0 mm 4 m/s 746 mmHg 43%
16:00 +21°C° 0 mm 4 m/s 746 mmHg 45%
17:00 +20°C° 0 mm 4 m/s 746 mmHg 46%
18:00 +20°C° 0 mm 4 m/s 746 mmHg 48%
19:00 +18°C° 0 mm 4 m/s 746 mmHg 52%
20:00 +16°C° 0 mm 3 m/s 746 mmHg 56%
21:00 +14°C° 0 mm 3 m/s 746 mmHg 60%
22:00 +14°C° 0 mm 2 m/s 746 mmHg 62%
23:00 +13°C° 0 mm 2 m/s 746 mmHg 64%

16 Août, Dimanche

Heure Température Précipitation Vent Pression Humidité
00:00 +13°C° 0 mm 2 m/s 746 mmHg 66%
01:00 +12°C° 0 mm 2 m/s 746 mmHg 68%
02:00 +12°C° 0 mm 2 m/s 746 mmHg 71%
03:00 +12°C° 0 mm 2 m/s 746 mmHg 73%
04:00 +12°C° 0 mm 2 m/s 746 mmHg 74%
05:00 +12°C° 0 mm 2 m/s 746 mmHg 76%
06:00 +10°C° 0 mm 2 m/s 746 mmHg 77%
07:00 +13°C° 0 mm 3 m/s 747 mmHg 69%
08:00 +16°C° 0 mm 3 m/s 747 mmHg 62%
09:00 +18°C° 0 mm 3 m/s 747 mmHg 54%
10:00 +19°C° 0 mm 4 m/s 747 mmHg 49%
11:00 +20°C° 0 mm 4 m/s 747 mmHg 43%
12:00 +21°C° 0 mm 4 m/s 747 mmHg 38%
13:00 +22°C° 0 mm 4 m/s 746 mmHg 36%
14:00 +23°C° 0 mm 4 m/s 746 mmHg 35%
15:00 +23°C° 0 mm 4 m/s 746 mmHg 33%
16:00 +23°C° 0 mm 4 m/s 746 mmHg 35%
17:00 +22°C° 0 mm 4 m/s 746 mmHg 37%
18:00 +22°C° 0 mm 4 m/s 746 mmHg 39%
19:00 +20°C° 0 mm 4 m/s 746 mmHg 47%
20:00 +18°C° 0 mm 3 m/s 746 mmHg 54%
21:00 +16°C° 0 mm 3 m/s 746 mmHg 62%
22:00 +16°C° 0 mm 3 m/s 746 mmHg 63%
23:00 +16°C° 0 mm 2 m/s 746 mmHg 65%

17 Août, Lundi

Heure Température Précipitation Vent Pression Humidité
00:00 +15°C° 0 mm 2 m/s 746 mmHg 67%
01:00 +16°C° 0 mm 2 m/s 746 mmHg 67%
02:00 +16°C° 0 mm 2 m/s 746 mmHg 67%
03:00 +16°C° 0 mm 2 m/s 746 mmHg 68%
04:00 +16°C° 0 mm 2 m/s 746 mmHg 71%
05:00 +15°C° 0 mm 2 m/s 746 mmHg 74%
06:00 +15°C° 0 mm 1 m/s 746 mmHg 78%
07:00 +17°C° 0 mm 2 m/s 746 mmHg 72%
08:00 +19°C° 0 mm 2 m/s 746 mmHg 66%
09:00 +21°C° 0 mm 3 m/s 746 mmHg 60%
10:00 +22°C° 0.1 mm 3 m/s 746 mmHg 57%
11:00 +23°C° 0.1 mm 4 m/s 746 mmHg 54%
12:00 +25°C° 0.1 mm 4 m/s 746 mmHg 51%
13:00 +25°C° 0.3 mm 4 m/s 745 mmHg 51%
14:00 +26°C° 0.3 mm 4 m/s 745 mmHg 51%
15:00 +26°C° 0.3 mm 4 m/s 745 mmHg 51%
16:00 +26°C° 0.1 mm 4 m/s 745 mmHg 52%
17:00 +25°C° 0.1 mm 3 m/s 745 mmHg 53%
18:00 +25°C° 0.1 mm 3 m/s 745 mmHg 55%
19:00 +24°C° 0 mm 3 m/s 745 mmHg 62%
20:00 +21°C° 0 mm 2 m/s 745 mmHg 69%
21:00 +19°C° 0 mm 2 m/s 745 mmHg 76%
22:00 +19°C° 0 mm 2 m/s 745 mmHg 79%
23:00 +18°C° 0 mm 2 m/s 745 mmHg 81%
Voir plus